TimeMST,TemperatureF,Dew PointF,Humidity,Sea Level PressureIn,VisibilityMPH,Wind Direction,Wind SpeedMPH,Gust SpeedMPH,PrecipitationIn,Events,Conditions,WindDirDegrees,DateUTC
12:54 AM,30.9,21.9,69,30.17,10.0,Calm,Calm,-,N/A,,Clear,0,2013-11-08 07:54:00
1:54 AM,28.9,21.0,72,30.18,10.0,Variable,3.5,-,N/A,,Clear,0,2013-11-08 08:54:00
2:54 AM,30.9,19.9,64,30.15,10.0,SE,5.8,-,N/A,,Clear,140,2013-11-08 09:54:00
3:54 AM,34.0,19.0,54,30.13,10.0,South,4.6,-,N/A,,Clear,170,2013-11-08 10:54:00
4:54 AM,28.0,21.0,75,30.15,10.0,Calm,Calm,-,N/A,,Clear,0,2013-11-08 11:54:00
5:54 AM,28.0,19.9,72,30.19,10.0,Calm,Calm,-,N/A,,Clear,0,2013-11-08 12:54:00
6:54 AM,26.1,19.9,78,30.21,10.0,South,3.5,-,N/A,,Clear,190,2013-11-08 13:54:00
7:54 AM,34.0,23.0,64,30.20,10.0,Calm,Calm,-,N/A,,Clear,0,2013-11-08 14:54:00
8:54 AM,39.0,26.1,60,30.18,10.0,Calm,Calm,-,N/A,,Clear,0,2013-11-08 15:54:00
9:54 AM,48.0,30.0,50,30.16,10.0,Variable,3.5,-,N/A,,Clear,0,2013-11-08 16:54:00
10:54 AM,55.0,30.9,40,30.13,10.0,NNW,8.1,-,N/A,,Clear,340,2013-11-08 17:54:00
11:54 AM,57.0,30.0,36,30.12,10.0,NNW,6.9,-,N/A,,Clear,340,2013-11-08 18:54:00
12:54 PM,61.0,28.9,30,30.08,10.0,Variable,4.6,-,N/A,,Clear,0,2013-11-08 19:54:00
1:54 PM,64.0,24.1,22,30.04,10.0,WNW,11.5,-,N/A,,Clear,300,2013-11-08 20:54:00
2:54 PM,64.0,23.0,21,30.01,10.0,NNW,9.2,-,N/A,,Clear,330,2013-11-08 21:54:00
3:54 PM,64.0,23.0,21,29.99,10.0,NNW,6.9,-,N/A,,Clear,330,2013-11-08 22:54:00
4:54 PM,62.1,23.0,22,30.01,10.0,North,3.5,-,N/A,,Clear,360,2013-11-08 23:54:00
5:54 PM,53.1,25.0,34,30.06,10.0,Calm,Calm,-,N/A,,Clear,0,2013-11-09 00:54:00
6:54 PM,46.0,27.0,47,30.11,10.0,South,4.6,-,N/A,,Clear,180,2013-11-09 01:54:00
7:54 PM,45.0,27.0,49,30.10,10.0,South,3.5,-,N/A,,Clear,190,2013-11-09 02:54:00
8:54 PM,45.0,26.1,48,30.09,10.0,SSE,5.8,-,N/A,,Clear,160,2013-11-09 03:54:00
9:54 PM,44.1,27.0,51,30.08,10.0,South,4.6,-,N/A,,Clear,180,2013-11-09 04:54:00
10:54 PM,42.1,26.1,53,30.06,10.0,South,6.9,-,N/A,,Clear,180,2013-11-09 05:54:00
11:54 PM,41.0,26.1,55,30.06,10.0,South,9.2,-,N/A,,Clear,170,2013-11-09 06:54:00